Weather in Aracatuba

Brazil     21°12′39″S   50°26′00″W
temp.,
°C
wind,
m/s
gust,
m/s
humid.,
%
clouds,
%
prec.,
mm/h
press.,
hPa
HPBL,
m
28 january, thu
thu2800:00+24wnw1183100 1.6 101123
03:00+22ne3392100 2.7 100975
06:00+22nne2290100 0.0 101053
09:00+26n357799 0.1 1012398
12:00+28nnw356988 3.8 1011778
15:00+27ne237894 7.3 1009252
18:00+27ese1174100 0.4 100729
21:00+24se3385100 0.9 100956
29 january, fri
fri2900:00+23e3586100 0.0 1010155
03:00+22ne2390100 0.1 100955
06:00+22ne2390100 0.8 101069
09:00+25ne3575100 0.8 1012369
12:00+31n575588 0.2 10111462
15:00+31nnw465461 1.7 10081804
18:00+28sw337597 2.5 100880
21:00+23sw479199 4.3 1010191
30 january, sat
sat3000:00+22s2392100 0.0 101166
03:00+22ese2391100 0.1 101144
06:00+21e369299 0.0 1012136
09:00+26ne367090 0.0 1013331
12:00+32n57491 0.0 10121828
15:00+33n46422 0.0 10092248
18:00+31n125321 0.0 100827
21:00+26ese235748 0.0 101032
31 january, sun
sun3100:00+25e236495 0.0 101243
03:00+24ene346497 0.0 101177
06:00+22ene3465100 0.0 101181
09:00+27ne356294 0.0 1013328
12:00+32n454659 0.0 10121565
15:00+32nw344678 0.0 10092041
18:00+31w2358100 0.0 100887
21:00+26s236295 0.0 101027
1 february, mon
mon100:00+25ese346798 0.0 101167
03:00+25e366697 0.0 1010110
06:00+23e367046 0.0 1011137
09:00+28ne366239 0.0 1012410
12:00+33n45420 0.0 10112011
15:00+32nnw234933 0.0 10091091
18:00+32ese005193 0.0 100826
21:00+28se124997 0.0 101024